Regional Weather Roundup
Issued by NWS

Home | Current Version | Previous Version | Graphics & Text | Print | Product List | Glossary On
Versions: 1 2 3 4 5 6 7 8 9 10 11 12 13 14 15 16 17 18 19 20 21 22 23 24 25 26 27 28 29 30 31 32 33 34 35 36 37 38 39 40 41 42 43 44 45 46 47 48 49 50
000
ASUS43 KMPX 311901
RWRMN
WEATHER ROUNDUP FOR MINNESOTA
NATIONAL WEATHER SERVICE TWIN CITIES/CHANHASSEN MN
200 PM CDT FRI OCT 31 2014


NOTE: "FAIR" INDICATES FEW OR NO CLOUDS BELOW 12,000 FEET WITH NO
SIGNIFICANT WEATHER AND/OR OBSTRUCTIONS TO VISIBILITY. N/A MEANS
CURRENT SKY AND/OR WEATHER CONDITIONS ARE NOT AVAILABLE.

MNZ060>063-068>070-312000-
   Twin Cities Metro

CITY           SKY/WX    TMP DP  RH WIND       PRES   REMARKS
TWIN CITIES    SUNNY     38  17  42 N9        30.52F
ST PAUL        SUNNY     38  18  44 N10       30.54F
CRYSTAL        SUNNY     39  16  39 NW10      30.52F
LAKEVILLE      SUNNY     36  18  48 N7        30.52F
EDEN PRAIRIE   SUNNY     39  17  41 VRB7      30.51F
SOUTH ST PAUL  SUNNY     38  18  45 NW9       30.52F
LAKE ELMO      FAIR      37  21  52 N6        30.52F
$$
MNZ001>005-007-008-013>017-022>024-027-028-312000-
   Northwest Minnesota

CITY           SKY/WX    TMP DP  RH WIND       PRES   REMARKS
BEMIDJI        SUNNY     34  18  50 CALM      30.51F
HALLOCK        SUNNY     37  21  52 S14       30.50F
ROSEAU         SUNNY     36  21  55 S8        30.51F
WARROAD        SUNNY     36  23  60 SW5       30.52F
THIEF RVR FALL SUNNY     36  19  51 S9        30.51F
CROOKSTON      SUNNY     36  21  55 S12       30.53F
FOSSTON        SUNNY     37  30  75 CALM      30.51F
DETROIT LAKES  SUNNY     34  19  55 SE8       30.51F WCI  27
MOORHEAD       SUNNY     37  21  52 S7        30.53F
PARK RAPIDS    SUNNY     36  17  46 SE3       30.50F
MAHNOMEN       FAIR      34  21  60 S5        30.52F WCI  29
$$
MNZ006-009>011-018-025>026-312000-
   North Central Minnesota

CITY           SKY/WX    TMP DP  RH WIND       PRES   REMARKS
BAUDETTE       SUNNY     34  20  56 SW5       30.52F WCI  30
FLAG ISLAND    SUNNY     34  27  75 S12       30.50F WCI  25
INTL FALLS     SUNNY     35  19  52 VRB5      30.51F WCI  31
WASKISH        SUNNY     34  19  55 CALM      30.53F
BIG FORK       SUNNY     37  18  44 W3        30.52F
LONGVILLE      SUNNY     36  16  44 CALM      30.51F
GRAND RAPIDS   SUNNY     34  16  47 NW5       30.51F WCI  30
CRANE LAKE     SUNNY     34  19  55 NW5       30.52F WCI  30
ORR            SUNNY     36  18  48 W6        30.48F
COOK           SUNNY     34  18  51 CALM      30.50F
WALKER         FAIR      33  17  52 E3        30.52F
$$
MNZ012-019>021-037-312000-
   Northeast Minnesota

CITY           SKY/WX    TMP DP  RH WIND       PRES   REMARKS
DULUTH         MOSUNNY   37  16  42 N6        30.49F
ELY            SUNNY     34  18  51 NW5       30.49F WCI  30
HIBBING        SUNNY     36  16  44 NE5       30.50F
EVELETH        SUNNY     34  21  60 N5        30.51F WCI  30
DULUTH HARBOR  SUNNY     37  21  52 CALM      30.54F
TWO HARBORS    SUNNY     39  19  45 CALM      30.48F
SILVER BAY     SUNNY     39  19  45 CALM      30.48F
GRAND MARAIS     N/A     37  18  46 NW8G17    30.50F
G MARAIS ARPRT PTSUNNY   30  16  55 NW8       30.46S WCI  23
$$
MNZ029>031-032-039>041-046>048-054>057-064-312000-
   West Central Minnesota

CITY           SKY/WX    TMP DP  RH WIND       PRES   REMARKS
FERGUS FALLS   SUNNY     36  18  48 S5        30.54F
WHEATON        SUNNY     34  21  60 S3        30.55F
MORRIS         SUNNY     37  21  52 SE3       30.52F
ALEXANDRIA     SUNNY     36  18  48 VRB3      30.52F
ELBOW LAKE     FAIR      35  23  61 S6        30.52F WCI  30
WADENA         SUNNY     34  18  51 SE5       30.51F WCI  30
GLENWOOD       SUNNY     37  16  41 CALM      30.52F
APPLETON       SUNNY     37  21  52 CALM      30.54F
BENSON         SUNNY     36  19  51 CALM      30.54F
ORTONVILLE     SUNNY     36  19  51 SE3       30.53F
MADISON        SUNNY     37  25  60 E3        30.54F
WILLMAR        FAIR      37  16  41 N5        30.54F
$$
MNZ033>034-036-042>043-049>051-058-059-312000-
   Central Minnesota

CITY           SKY/WX    TMP DP  RH WIND       PRES   REMARKS
ST CLOUD       SUNNY     39  16  39 CALM      30.53F
SAUK CENTRE    FAIR      34  17  48 CALM      30.53F
PAYNESVILLE    SUNNY     33  17  51 CALM      30.53F
AITKIN         SUNNY     39  16  38 CALM      30.51F
PINE RIVER     SUNNY     36  19  51 CALM      30.54F
BRAINERD       SUNNY     34  15  46 NW5       30.53F WCI  30
STAPLES        SUNNY     36  16  44 S3        30.52F
LONG PRAIRIE   FAIR      34  19  55 CALM      30.53F
LITTLE FALLS   SUNNY     34  16  47 CALM      30.53F
LITCHFIELD     SUNNY     37  18  44 NE3       30.53F
BUFFALO        SUNNY     37  15  40 NW6       30.54F
MAPLE LAKE     SUNNY     37  19  48 NW5       30.54F
$$
MNZ037-044-045-052-053-312000-
   East Central Minnesota

CITY           SKY/WX    TMP DP  RH WIND       PRES   REMARKS
PRINCETON      SUNNY     37  16  41 NE5       30.53F
MORA           SUNNY     36  16  44 E3        30.54F
CAMBRIDGE      SUNNY     39  21  48 CALM      30.51F
RUSH CITY      SUNNY     37  18  47 NW5       30.53F
MOOSE LAKE     SUNNY     36  18  48 CALM      30.50F
HINCKLEY       FAIR      36  19  51 N3        30.52F
CLOQUET        SUNNY     36  16  44 N7        30.50S
MCGREGOR       SUNNY     36  19  51 NW3       30.52S
$$
MNZ071>073-080-081-089-090-097-098-312000-
   Southwest Minnesota

CITY           SKY/WX    TMP DP  RH WIND       PRES   REMARKS
MONTEVIDEO     SUNNY     41  21  45 E3        30.55F
GRANITE FALLS  SUNNY     36  20  53 NE3       30.55F
CANBY          SUNNY     35  23  61 CALM      30.55F
MARSHALL       SUNNY     36  16  44 E3        30.53F
REDWOOD FALLS  SUNNY     39  19  44 CALM      30.54F
OLIVIA         SUNNY     36  19  51 N3        30.53F
PIPESTONE      SUNNY     37  18  44 E5        30.50F
WINDOM         SUNNY     37  18  44 N7        30.52F
WORTHINGTON    SUNNY     36  18  48 NE6       30.52F
JACKSON        SUNNY     36  18  48 N7        30.51F
TRACY          SUNNY     36  20  53 N3        30.54F
SLAYTON        SUNNY     34  17  48 CALM      30.52F
$$
MNZ065>067-074>077-082>085-091>093-312000-
   South Central Minnesota

CITY           SKY/WX    TMP DP  RH WIND       PRES   REMARKS
MANKATO        SUNNY     37  16  41 NE7       30.52F
NEW ULM        SUNNY     37  19  48 NW5       30.53F
ST JAMES       SUNNY     37  16  41 N7        30.54F
FAIRMONT       SUNNY     37  16  41 N12       30.52F
GLENCOE        SUNNY     38  19  48 N8        30.52F
FARIBAULT      SUNNY     37  18  44 N7        30.51F
OWATONNA       SUNNY     37  18  44 N14       30.50F
WASECA         SUNNY     36  14  41 N8        30.52F
ALBERT LEA     SUNNY     37  18  44 N14       30.49F
$$
MNZ078>079-086>088-094>096-312000-
   Southeast Minnesota

CITY           SKY/WX    TMP DP  RH WIND       PRES   REMARKS
ROCHESTER      SUNNY     38  19  46 N12G22    30.47F
RED WING       SUNNY     39  16  38 N8        30.49F
STANTON        SUNNY     38  18  43 N9        30.50F
DODGE CENTER   SUNNY     37  19  48 N8G14     30.47F
WINONA         MOSUNNY   41  21  45 N8G18     30.47F
AUSTIN         SUNNY     37  19  48 N14G21    30.47F
PRESTON        MOSUNNY   36  19  49 N18       30.45F
$$
ABBREVIATIONS USED IN REMARKS
   TC - TEMPERATURES IN CELSIUS
  WCI - WIND CHILL INDEX
   HX - HEAT INDEX
  VSB - VISIBILITY
$$



USA.gov is the U.S. government's official web portal to all federal, state and local government web resources and services.